Tracking 27126 objects as of 30-Mar-2023
HD Live streaming from Space Station
objects crossing your sky now

SL-3 R/B

Track SL-3 R/B now!
10-day predictions
SL-3 R/B is classified as:


NORAD ID: 13068
Int'l Code: 1982-013B
Perigee: 521.8 km
Apogee: 565.5 km
Inclination: 81.2 °
Period: 95.4 minutes
Semi major axis: 6914 km
RCS: 5.3655 m2 (large)
Launch date: February 19, 1982
Source: Commonwealth of Independent States (former USSR) (CIS)
Launch site: PLESETSK MISSILE AND SPACE COMPLEX (PKMTR)

Note: This is a ROCKET BODY
Your satellite tracking list
Your tracking list is empty




NASA's NSSDC Master Catalog

Two Line Element Set (TLE):
1 13068U 82013B   23088.92590129  .00005053  00000-0  30679-3 0  9991
2 13068  81.1915 328.9727 0031588 173.4653 186.6992 15.09911430241413
Source of the keplerian elements: AFSPC